Terminal Aerodrome Forecast
Issued by NWS Atlanta, GA

Home | Current Version | Previous Version | Text Only | Print | Product List | Glossary On
Versions: 1 2 3 4 5 6 7 8 9 10 11 12 13 14 15 16 17 18 19 20 21 22 23 24 25 26 27 28 29 30 31 32 33 34 35 36 37 38 39 40 41 42 43 44 45 46 47 48 49 50
000
FTUS42 KFFC 152336
TAFAHN
TAF
KAHN 152336Z 1600/1624 12004KT P6SM VCSH SCT015 OVC025
     FM160600 00000KT 4SM -SHRA BR OVC007
     FM160900 VRB03KT 2SM -SHRA BR OVC004
     FM161500 25006KT P6SM BKN007
     FM161700 28010KT P6SM SCT010 BKN025
     FM161900 29012G20KT P6SM SCT030 BKN120=

USA.gov is the U.S. government's official web portal to all federal, state and local government web resources and services.